Weather History for La Grange, GA

Change the Weather History Date:

Sunday, February 3, 2013

  Actual Average Record
Temperature  
Mean Temperature 44 °F -  
Max Temperature 61 °F 57 °F 78 °F (1957)
Min Temperature 28 °F 35 °F 8 °F (1951)
Degree Days  
Heating Degree Days 20    
Moisture  
Dew Point 33 °F    
Average Humidity 71    
Maximum Humidity 100    
Minimum Humidity 28    
Precipitation  
Precipitation 0.00 in - - ()
Sea Level Pressure  
Sea Level Pressure 30.11 in    
Wind  
Wind Speed 6 mph (WNW)    
Max Wind Speed 23 mph    
Max Gust Speed 31 mph    
Visibility 8 miles    
Events Fog    
Averages and records for this station are not official NWS values.
T = Trace of Precipitation, MM = Missing Value Source: NWS Daily Summary

Daily Weather History Graph

Daily Weather History Graph

Search for Another Location

Airport:

Trip Planner

Search our weather history database for the weather conditions in past years. The results will help you decide how hot, cold, wet, or windy it might be!

Date:

Astronomy

Feb. 03, 2013 Rise Set
Actual Time 7:33 AM EST 6:14 PM EST
Civil Twilight 7:08 AM EST 6:40 PM EST
Nautical Twilight 6:38 AM EST 7:10 PM EST
Astronomical Twilight 6:09 AM EST 7:39 PM EST
Moon 12:59 AM EST (2/3) 11:53 AM EST (2/3)
Length of Visible Light 11h 32m
Length of Day
10h 40m
Waning Gibbous, 49% of the Moon is Illuminated
Feb 3
Waning Gibbous
Feb 10
New
Feb 17
First Quarter
Feb 25
Full
Mar 4
Last Quarter

Hourly Weather History & Observations

Time (EST) Temp. Windchill Dew Point Humidity Pressure Visibility Wind Dir Wind Speed Gust Speed Precip Events Conditions
12:15 AM 43.3 °F 39.2 °F 42.6 °F 97% 30.16 in 10.0 mi NW 6.9 mph - N/A   Clear
12:35 AM 41.7 °F 38.0 °F 41.0 °F 97% 30.16 in 10.0 mi NW 5.8 mph - N/A   Clear
12:55 AM 41.4 °F 38.4 °F 41.0 °F 99% 30.15 in 10.0 mi NW 4.6 mph - N/A   Clear
1:15 AM 40.8 °F - 40.1 °F 97% 30.15 in 10.0 mi Calm Calm - N/A   Clear
1:35 AM 39.0 °F 34.8 °F 38.7 °F 99% 30.16 in 2.5 mi NW 5.8 mph - N/A   Clear
1:55 AM 41.2 °F 36.6 °F 38.5 °F 90% 30.17 in 10.0 mi NW 6.9 mph - N/A   Clear
2:15 AM 39.2 °F 35.0 °F 37.4 °F 93% 30.16 in 10.0 mi NW 5.8 mph - N/A   Clear
2:35 AM 37.0 °F 33.3 °F 35.8 °F 95% 30.16 in 10.0 mi WNW 4.6 mph - N/A   Clear
2:55 AM 37.8 °F - 36.5 °F 95% 30.15 in 10.0 mi Calm Calm - N/A   Clear
3:15 AM 35.4 °F 32.6 °F 34.7 °F 97% 30.15 in 7.0 mi West 3.5 mph - N/A   Clear
3:35 AM 34.7 °F - 34.5 °F 99% 30.15 in 7.0 mi Calm Calm - N/A   Clear
3:55 AM 33.6 °F - 33.4 °F 99% 30.14 in 0.8 mi Calm Calm - N/A   Mist
4:15 AM 32.0 °F - 32.0 °F 100% 30.14 in 0.2 mi Calm Calm - N/A Fog Fog
4:35 AM 31.8 °F - 31.8 °F 100% 30.14 in 0.5 mi Calm Calm - N/A Fog Fog
4:55 AM 31.8 °F - 31.8 °F 100% 30.14 in 0.2 mi Calm Calm - N/A Fog Fog
5:15 AM 30.2 °F - 30.2 °F 100% 30.14 in 0.2 mi Calm Calm - N/A Fog Light Freezing Fog
5:35 AM 30.7 °F - 30.7 °F 100% 30.14 in 0.5 mi Calm Calm - N/A Fog Light Freezing Fog
5:55 AM 31.3 °F - 31.3 °F 100% 30.14 in 0.5 mi Calm Calm - N/A Fog Light Freezing Fog
6:15 AM 30.9 °F - 30.9 °F 100% 30.15 in 0.8 mi Calm Calm - N/A   Mostly Cloudy
6:35 AM 30.0 °F - 30.0 °F 100% 30.14 in 0.5 mi Calm Calm - N/A Fog Light Freezing Fog
6:55 AM 29.1 °F - 29.1 °F 100% 30.15 in 0.5 mi Calm Calm - N/A Fog Light Freezing Fog
7:15 AM 28.4 °F - 28.4 °F 100% 30.16 in 0.2 mi Calm Calm - N/A Fog Light Freezing Fog
7:35 AM 28.9 °F - 28.9 °F 100% 30.16 in 0.2 mi Calm Calm - N/A Fog Light Freezing Fog
7:55 AM 29.5 °F - 29.5 °F 100% 30.16 in 0.2 mi Calm Calm - N/A Fog Light Freezing Fog
8:15 AM 30.0 °F - 30.0 °F 100% 30.15 in 5.0 mi Calm Calm - N/A   Scattered Clouds
8:35 AM 32.0 °F - 31.8 °F 99% 30.15 in 10.0 mi Calm Calm - N/A   Clear
8:55 AM 36.1 °F - 36.1 °F 100% 30.15 in 10.0 mi Calm Calm - N/A   Clear
9:15 AM 39.6 °F 36.3 °F 38.1 °F 95% 30.15 in 10.0 mi West 4.6 mph - N/A   Clear
9:35 AM 42.1 °F 37.7 °F 38.7 °F 88% 30.16 in 10.0 mi West 6.9 mph - N/A   Clear
9:55 AM 44.6 °F 39.7 °F 38.3 °F 79% 30.16 in 10.0 mi West 9.2 mph - N/A   Clear
10:15 AM 45.9 °F 40.8 °F 37.6 °F 73% 30.15 in 10.0 mi West 10.4 mph - N/A   Clear
10:35 AM 47.3 °F - 37.9 °F 70% 30.15 in 10.0 mi West 12.7 mph 19.6 mph N/A   Clear
10:55 AM 49.8 °F - 38.5 °F 65% 30.14 in 10.0 mi West 10.4 mph 17.3 mph N/A   Clear
11:15 AM 52.5 °F - 38.8 °F 60% 30.13 in 10.0 mi WSW 10.4 mph - N/A   Clear
11:35 AM 53.2 °F - 37.6 °F 55% 30.12 in 10.0 mi West 12.7 mph 18.4 mph N/A   Clear
11:55 AM 54.9 °F - 35.6 °F 48% 30.12 in 10.0 mi West 18.4 mph 24.2 mph N/A   Clear
12:15 PM 56.8 °F - 35.6 °F 45% 30.10 in 10.0 mi WNW 21.9 mph 26.5 mph N/A   Clear
12:35 PM 57.0 °F - 35.4 °F 44% 30.10 in 7.0 mi West 18.4 mph 24.2 mph N/A   Clear
12:55 PM 56.8 °F - 36.1 °F 46% 30.08 in 10.0 mi WNW 15.0 mph 27.6 mph N/A   Clear
1:15 PM 57.7 °F - 35.4 °F 43% 30.07 in 10.0 mi WNW 18.4 mph 31.1 mph N/A   Clear
1:35 PM 59.7 °F - 34.9 °F 39% 30.05 in 10.0 mi WNW 18.4 mph 26.5 mph N/A   Clear
1:55 PM 59.4 °F - 31.6 °F 35% 30.04 in 10.0 mi NW 23.0 mph 31.1 mph N/A   Clear
2:15 PM 60.8 °F - 31.6 °F 33% 30.04 in 10.0 mi WNW 18.4 mph 31.1 mph N/A   Clear
2:35 PM 61.0 °F - 31.6 °F 33% 30.04 in 10.0 mi WNW 18.4 mph 24.2 mph N/A   Clear
2:55 PM 60.3 °F - 31.3 °F 34% 30.03 in 10.0 mi West 17.3 mph 27.6 mph N/A   Clear
3:15 PM 60.4 °F - 30.0 °F 32% 30.03 in 10.0 mi WNW 17.3 mph 28.8 mph N/A   Clear
3:35 PM 60.8 °F - 30.2 °F 31% 30.03 in 10.0 mi WNW 18.4 mph 24.2 mph N/A   Clear
3:55 PM 61.2 °F - 29.7 °F 30% 30.03 in 10.0 mi West 18.4 mph 21.9 mph N/A   Clear
4:15 PM 60.4 °F - 27.3 °F 28% 30.03 in 10.0 mi NW 19.6 mph 27.6 mph N/A   Clear
4:35 PM 60.4 °F - 26.6 °F 28% 30.04 in 10.0 mi WNW 16.1 mph 25.3 mph N/A   Clear
4:55 PM 59.5 °F - 27.0 °F 29% 30.04 in 10.0 mi NW 16.1 mph 27.6 mph N/A   Clear
5:15 PM 58.8 °F - 27.5 °F 30% 30.04 in 10.0 mi WNW 17.3 mph 23.0 mph N/A   Clear
5:35 PM 58.1 °F - 26.8 °F 30% 30.05 in 10.0 mi WNW 11.5 mph - N/A   Clear
5:55 PM 56.8 °F - 27.1 °F 32% 30.06 in 10.0 mi WNW 11.5 mph 17.3 mph N/A   Clear
6:15 PM 55.0 °F - 27.5 °F 35% 30.06 in 10.0 mi WNW 12.7 mph 18.4 mph N/A   Clear
6:35 PM 53.4 °F - 28.4 °F 38% 30.06 in 10.0 mi NW 9.2 mph - N/A   Clear
6:55 PM 50.0 °F - 29.3 °F 45% 30.06 in 10.0 mi WNW 8.1 mph - N/A   Clear
7:15 PM 49.1 °F - 29.1 °F 46% 30.07 in 10.0 mi NW 5.8 mph - N/A   Clear
7:35 PM 47.5 °F - 29.3 °F 49% 30.07 in 10.0 mi NW 3.5 mph - N/A   Clear
7:55 PM 44.6 °F - 29.8 °F 56% 30.08 in 10.0 mi Calm Calm - N/A   Clear
8:15 PM 42.8 °F - 30.2 °F 61% 30.09 in 10.0 mi Calm Calm - N/A   Clear
8:35 PM 42.6 °F - 29.7 °F 60% 30.09 in 10.0 mi Calm Calm - N/A   Clear
8:55 PM 40.6 °F - 31.1 °F 69% 30.10 in 10.0 mi Calm Calm - N/A   Clear
9:15 PM 39.2 °F - 31.5 °F 74% 30.10 in 10.0 mi Calm Calm - N/A   Clear
9:35 PM 36.9 °F - 30.7 °F 79% 30.11 in 10.0 mi Calm Calm - N/A   Clear
9:55 PM 35.8 °F - 30.4 °F 81% 30.10 in 10.0 mi Calm Calm - N/A   Clear
10:15 PM 35.2 °F - 29.5 °F 80% 30.11 in 10.0 mi Calm Calm - N/A   Clear
10:35 PM 34.9 °F - 30.2 °F 83% 30.10 in 10.0 mi Calm Calm - N/A   Clear
10:55 PM 35.1 °F - 30.7 °F 84% 30.11 in 10.0 mi Calm Calm - N/A   Clear
11:15 PM 34.9 °F - 30.2 °F 83% 30.11 in 10.0 mi Calm Calm - N/A   Clear
11:35 PM 34.0 °F - 30.4 °F 87% 30.12 in 10.0 mi Calm Calm - N/A   Clear
11:55 PM 33.8 °F - 29.3 °F 84% 30.11 in 10.0 mi Calm Calm - N/A   Clear